Regional Weather Roundup
Issued by NWS

Home | Current Version | Previous Version | Graphics & Text | Print | Product List | Glossary On
Versions: 1 2 3 4 5 6 7 8 9 10 11 12 13 14 15 16 17 18 19 20 21 22 23 24 25 26 27 28 29 30 31 32 33 34 35 36 37 38 39 40 41 42 43 44 45 46 47 48 49 50
000
ASUS43 KMKX 231521
RWRWI

WISCONSIN REGIONAL WEATHER ROUNDUP
NATIONAL WEATHER SERVICE MILWAUKEE/SULLIVAN WI
1000 AM CDT FRI JUN 23 2017

NOTE: "FAIR" INDICATES FEW OR NO CLOUDS BELOW 12,000 FEET WITH NO
SIGNIFICANT WEATHER AND/OR OBSTRUCTIONS TO VISIBILITY.

WIZ001-002-006>008-014>016-023>028-231600-
NORTHWEST WISCONSIN

CITY           SKY/WX    TMP DP  RH WIND       PRES   REMARKS
SUPERIOR ARPT  NOT AVBL
ASHLAND        MOSUNNY   67  52  58 W12G20    29.67S
HAYWARD        MOSUNNY   64  48  56 W8        29.71F
SIREN          MOSUNNY   65  50  58 W12G17    29.74S
CUMBERLAND     SUNNY     63  46  55 NW10G18   29.74S
RICE LAKE      MOSUNNY   65  49  58 W13       29.75S
CHETEK         SUNNY     65  52  62 NW9       29.74S
LADYSMITH      SUNNY     66  52  59 W9        29.73S
EAU CLAIRE     SUNNY     67  53  61 W10       29.73S
MENOMONIE      SUNNY     66  52  60 W10G16    29.76R
NEW RICHMOND   SUNNY     65  49  56 NW14      29.78R
OSCEOLA        MOSUNNY   65  52  62 W12G22    29.80S
$$

WIZ003>005-009-010-017-018-231600-
NORTH CENTRAL WISCONSIN

CITY           SKY/WX    TMP DP  RH WIND       PRES   REMARKS
MANITOWISH WTR SUNNY     64  48  55 W15G21    29.67F
ARBOR VITAE    SUNNY     65  51  59 NW9       29.67F
WOODRUFF       SUNNY     65  51  59 NW9       29.67F
RHINELANDER    SUNNY     66  54  65 W10       29.68F
EAGLE RIVER    SUNNY     66  50  56 W10       29.66F
LAND O LAKES   MOSUNNY   67  46  46 W7G16     29.67F
PHILLIPS       SUNNY     64  51  64 W9        29.69S
TOMAHAWK       NOT AVBL
MEDFORD        SUNNY     64  53  66 W12       29.71S
MERRILL        SUNNY     67  55  64 W9        29.69F
$$

WIZ029-030-035-036-043>047-231600-
CENTRAL WISCONSIN

CITY           SKY/WX    TMP DP  RH WIND       PRES   REMARKS
WAUSAU         SUNNY     70  56  61 W9        29.68S
MOSINEE        MOSUNNY   70  57  64 W9        29.72R
MARSHFIELD     SUNNY     68  56  65 W12       29.71S
STEVENS POINT  SUNNY     69  55  60 W7        29.71S
WAUPACA        CLOUDY    73  62  69 SW7       29.70S
WAUTOMA        CLOUDY    69  63  81 W7        29.72R
WISC RAPIDS    SUNNY     71  59  65 W9        29.72S
CAMP DOUGLAS   MOSUNNY   72  61  68 W12       29.72S
$$

WIZ011>013-019>022-031-037>040-048>050-231600-
NORTHEAST WISCONSIN

CITY           SKY/WX    TMP DP  RH WIND       PRES   REMARKS
ANTIGO         SUNNY     67  55  65 W10G16    29.69S
SHAWANO        MOSUNNY   72  63  71 SW8       29.67S
OCONTO         CLOUDY    72  60  65 W6        29.64S
STURGEON BAY     N/A     69  60  73 W9          N/A
GREEN BAY      PTSUNNY   74  63  68 SW6       29.66F
MANITOWOC      MOSUNNY   72  59  63 W13       29.68R
APPLETON       MOSUNNY   70  57  64 W7        29.68R
CLINTONVILLE   PTSUNNY   70  61  73 W9        29.68R
OSHKOSH        CLOUDY    71  61  70 W6        29.69R
$$

WIZ032>034-041-042-053>061-231600-
SOUTHWEST WISCONSIN

CITY           SKY/WX    TMP DP  RH WIND       PRES   REMARKS
LA CROSSE      SUNNY     73  58  59 W9        29.74S
SPARTA         SUNNY     69  62  78 W6        29.74S
VIROQUA        SUNNY     70  62  77 W10       29.76F
BOSCOBEL       SUNNY     73  65  75 SW6       29.76F
PRAIRIE DU CHI SUNNY     73  61  67 W5        29.76F
PLATTEVILLE    MOSUNNY   70  64  81 NW6       29.78F
$$

WIZ056-057-062-063-064-067-068-231600-
SOUTH CENTRAL WISCONSIN

CITY           SKY/WX    TMP DP  RH WIND       PRES   REMARKS
REEDSBURG      CLOUDY    70  64  81 W7        29.73F
BARABOO/DELLS  CLOUDY    69  61  77 SW8       29.74S
LONE ROCK      CLOUDY    68  63  84 W9        29.75F
MINERAL POINT  PTSUNNY   72  63  73 NW6       29.77F
MADISON        PTSUNNY   73  61  65 VRB5      29.73S
MIDDLETON      MOSUNNY   73  63  70 W7        29.74F
WATERTOWN      MOSUNNY   71  63  76 W8        29.72F
MONROE         MOSUNNY   72  55  56 NW5       29.75F
JANESVILLE     MOSUNNY   73  63  68 NW6       29.73S
$$

WIZ051-052-058>065-066-070>072-231600-
SOUTHEAST WISCONSIN

CITY           SKY/WX    TMP DP  RH WIND       PRES   REMARKS
MILWAUKEE      CLOUDY    72  62  71 NW9       29.70R
WAUKESHA       SUNNY     66  61  82 W9        29.73R
MILWAUKEE/TIMM SUNNY     70  57  64 NW9       29.71R
RACINE         PTSUNNY   70  61  73 NW8       29.71S
KENOSHA        CLOUDY    70  62  76 NW8       29.71S
FOND DU LAC    MOSUNNY   73  59  61 W9        29.70S
SHEBOYGAN      MOSUNNY   72  61  68 W13       29.69R
WEST BEND      MOSUNNY   70  59  68 NW12      29.70S
JUNEAU         MOSUNNY   70  61  73 CALM      29.73S
$$

LSZ147-162-231600-
LAKE SUPERIOR

STATION/POSITION TIME  TEMP    WIND        PRES    WAVE
                       AIR SEA DIR/SP/G            HT/PER
                 (UTC) (F)     (DEG/KT/KT) (MB)    (FT/S)
W MID LAKE BUOY  1450   46 39  250/ 14/ 14 1002.8R   1/ 3
DEVILS ISLAND    1500   56     240/ 21/ 24 1004.0R
SAXON HARBOR     1440   65     290/  9/ 13 1004.4R
$$

LMZ867-665-643>646-231600-
LAKE MICHIGAN

STATION/POSITION TIME  TEMP    WIND        PRES    WAVE
                       AIR SEA DIR/SP/G            HT/PER
                 (UTC) (F)     (DEG/KT/KT) (MB)    (FT/S)
CHAMBERS ISLAND  1440   68     200/  3/  6 1003.4S
S GREEN BAY BUOY 1500   68     250/  6/  8 1004.0
N MID LAKE BUOY  1450   59 56  270/  8/  8 1003.5R   1
NORTHPORT PIER   1440   68     290/  5/ 10 1003.4S
KEWAUNEE LAKESHO 1500   71     300/  7/ 11 1004.0
SHEBOYGAN LAKESH 1500   71     290/  9/ 11 1004.5R
PORT WASHINGTON  1430   71     310/  7/ 13 1006.1R
ATWATER BUOY     1409   65 60  280/ 10/ 14 1005.6R
MILWAUKEE LAKESH 1500   70     300/ 10/ 13   N/A
S MID LAKE BUOY  1450   62 61  280/  8/  8 1005.1R   1/ 4
KENOSHA   LAKESH 1500   69     310/  9/ 12 1005.8
$$

TC  - TEMPERATURE IN CELSIUS
VSB - VISIBILITY IN STATUTE MILES
WCI - WIND CHILL INDEX
HX  - HEAT INDEX





USA.gov is the U.S. government's official web portal to all federal, state and local government web resources and services.